Lid_Strength_Index
2 1 1 1 1 0 0 1 1 0 1 3 4 5 5 5 5 5 4 4 5 4 5 5 5 6 6 6 5 5 5 6
2 1 1 1 1 1 1 1 1 1 2 4 6 6 6 6 5 5 5 5 5 4 5 5 5 6 6 6 6 6 7 6
2 2 1 1 1 1 1 1 1 1 1 2 3 4 6 7 7 7 6 6 6 5 5 6 6 6 6 6 6 7 7 7
3 2 2 1 1 1 1 1 1 1 1 2 3 4 8 9 9 9 8 7 7 6 6 6 6 6 7 7 7 7 8 7
3 3 2 2 1 1 1 1 1 1 1 3 4 6 8 8 9 8 8 7 7 8 8 7 6 7 7 8 8 7 7 8
4 3 2 2 1 1 1 1 1 1 2 2 3 6 5 6 9 9 8 8 8 7 8 9 9 8 7 8 8 8 8 8
4 3 2 2 1 1 1 1 1 1 3 2 2 4 5 6 8 10 9 9 8 7 9 9 9 10 10 9 9 9 9 8
5 4 4 3 2 2 1 1 2 1 3 3 3 3 4 6 7 9 10 10 9 9 10 11 11 11 11 10 10 10 9 9
5 5 4 3 3 2 2 2 2 1 2 2 3 4 4 6 7 8 9 9 8 8 11 11 11 11 11 10 10 10 9 10
6 5 4 4 3 3 2 2 2 2 2 2 3 4 4 6 7 8 8 9 10 9 11 11 12 12 11 11 11 12 10 10
5 4 3 3 3 2 1 1 2 2 2 3 4 4 5 7 7 9 9 10 12 12 13 13 12 12 13 12 12 12 12 11
4 3 3 2 2 3 3 2 2 3 2 4 6 6 7 7 8 9 11 12 13 12 13 13 13 14 13 13 14 14 13 12
3 3 2 3 3 2 4 5 4 5 5 6 6 7 8 10 10 10 11 12 12 13 14 14 14 14 14 14 14 13 14 13
3 3 3 3 3 3 3 4 6 7 7 7 8 10 10 11 11 11 11 12 13 13 13 14 15 14 14 13 14 14 14 13
3 3 3 3 3 3 7 5 6 9 8 9 11 11 11 11 11 11 11 11 12 12 13 14 13 13 13 12 13 13 13 13
4 4 4 3 3 3 3 5 8 9 10 10 11 10 11 11 11 11 11 12 13 13 13 12 13 12 12 12 13 13 14 14
4 4 3 3 3 3 3 3 6 9 11 14 11 11 11 11 11 12 13 13 14 14 13 14 13 12 13 13 13 14 14 14
4 4 3 3 3 3 3 3 6 8 10 12 14 14 13 13 13 13 14 14 14 14 12 13 13 13 13 13 14 13 13 13
4 4 4 3 2 2 3 4 7 9 10 10 12 13 14 14 14 15 14 14 15 14 14 14 14 14 13 13 14 14 13 13